This demonstration page uses our WeatherBlox Daily Observations layout. Learn more.

Left ArrowRight Arrow

Hourly Observations for April 29, 2022

Temp ( °F °C ) Dew Point ( °F °C ) Humidity (%) Winds ( mph kmh ) Pressure ( in mb ) Visibility ( mi km ) Precip ( " mm )
12:15 am 00:15 Mostly Cloudy with Thunderstorms 64 18 55 13 73 73 SE 14 22 29.80 1009 10 16 0.00 0.00
12:56 am 00:56 Mostly Cloudy with Thunderstorms 62 16.8 56 13.5 81 81 SSE 15 24 29.80 1009 10 16 0.00 0.00
1:10 am 01:10 Mostly Cloudy with Light Showers 61 16 57 14 88 88 SSW 6 9 29.85 1011 8 13 0.00 0.00
1:56 am 01:56 Mostly Cloudy with Light Rain 59 15.2 59 15.2 100 100 ESE 9 15 29.83 1010 6 10 0.00 0.00
2:56 am 02:56 Mostly Cloudy with Light Rain 58 14.6 58 14.6 100 100 E 10 17 29.78 1008 8 13 0.00 0.00
3:56 am 03:56 Mostly Cloudy 57 13.9 57 13.9 100 100 ESE 12 19 29.74 1007 10 16 0.00 0.00
4:56 am 04:56 Cloudy 57 13.8 57 13.8 100 100 E 9 15 29.70 1006 10 16 0.00 0.00
5:56 am 05:56 Cloudy 57 13.8 57 13.8 100 100 E 7 11 29.72 1006 10 16 0.00 0.00
6:56 am 06:56 undefined 57 14.1 57 14.1 100 100 SE 12 19 29.75 1007 10 16 0.00 0.00
7:16 am 07:16 Cloudy with Light Rain 57 14 57 14 100 100 ESE 10 17 29.73 1007 10 16 0.00 0.00
7:27 am 07:27 Cloudy with Light Showers 57 14 57 14 100 100 ESE 8 13 29.73 1007 10 16 0.00 0.00
7:56 am 07:56 Cloudy with Nearby Thunderstorms 57 13.9 56 13.6 98 98 SE 12 19 29.73 1007 10 16 0.00 0.00
8:09 am 08:09 Cloudy with Light Showers 57 14 57 14 100 100 ESE 16 26 29.69 1005 10 16 0.00 0.00
8:15 am 08:15 Cloudy with Light Showers 57 14 57 14 100 100 E 15 24 29.65 1004 10 16 0.00 0.00
8:25 am 08:25 undefined 55 13 55 13 100 100 ENE 14 22 29.66 1005 10 16 0.00 0.00
8:56 am 08:56 Cloudy 57 13.9 53 11.9 88 88 NNE 13 20 29.67 1005 10 16 0.00 0.00
9:56 am 09:56 Cloudy 57 13.9 53 11.9 88 88 ENE 8 13 29.67 1005 10 16 0.00 0.00
10:56 am 10:56 Partly Cloudy 61 15.9 55 12.6 81 81 E 9 15 29.64 1004 10 16 0.00 0.00
11:56 am 11:56 Mostly Cloudy 63 17.1 55 13 77 77 E 7 11 29.64 1004 10 16 0.00 0.00
12:28 pm 12:28 Cloudy 64 18 57 14 78 78 SE 20 31 29.65 1004 10 16 0.00 0.00
12:56 pm 12:56 Cloudy 64 17.7 56 13.2 75 75 SE 22 35 29.64 1004 10 16 0.00 0.00
1:56 pm 13:56 Cloudy 61 15.9 54 12.1 78 78 SE 8 13 29.63 1004 10 16 0.00 0.00
2:56 pm 14:56 Cloudy 62 16.6 55 12.7 78 78 ESE 10 17 29.61 1003 10 16 0.00 0.00
3:56 pm 15:56 Mostly Cloudy 63 17.3 56 13.4 78 78 ESE 10 17 29.59 1002 10 16 0.00 0.00
4:56 pm 16:56 Cloudy 63 17.4 56 13.5 78 78 ESE 13 20 29.57 1002 10 16 0.00 0.00
5:56 pm 17:56 Cloudy 64 17.6 56 13.5 77 77 ESE 13 20 29.53 1000 10 16 0.00 0.00
6:56 pm 18:56 Cloudy 63 17.2 57 13.7 80 80 SE 18 30 29.49 999 10 16 0.00 0.00
7:16 pm 19:16 Cloudy 63 17 57 14 83 83 SE 21 33 29.49 999 10 16 0.00 0.00
7:56 pm 19:56 Mostly Cloudy 62 16.9 56 13.4 80 80 ESE 12 19 29.47 998 10 16 0.00 0.00
8:29 pm 20:29 Mostly Cloudy with Light Rain 63 17 57 14 83 83 SE 18 30 29.52 1000 10 16 0.00 0.00
8:40 pm 20:40 Windy with Storms Likely 63 17 57 14 83 83 SE 24 39 29.54 1000 7 11 0.00 0.00
8:56 pm 20:56 Windy with Storms Likely 62 16.4 58 14.6 89 89 SSE 21 33 29.54 1001 5 8 0.00 0.00
8:58 pm 20:58 Mostly Cloudy with Strong Thunderstorms 63 17 59 15 88 88 S 29 46 29.52 1000 6 10 0.00 0.00
9:56 pm 21:56 Cloudy with Rain 56 13.4 52 11.3 87 87 W 10 17 29.61 1003 5 8 0.23 5.84
10:29 pm 22:29 Cloudy with Thunderstorms 55 13 54 12 94 94 NE 8 13 29.55 1001 5 8 0.00 0.00
10:44 pm 22:44 Cloudy with Light Rain 55 13 54 12 94 94 E 9 15 29.52 1000 9 14 0.00 0.00
10:56 pm 22:56 Mostly Cloudy 55 12.7 54 12.2 97 97 ENE 9 15 29.52 1000 10 16 0.00 0.00
11:56 pm 23:56 Cloudy 56 13.1 53 11.7 91 91 WNW 5 7 29.47 998 10 16 0.00 0.00

Powered by AerisWeather